Regional Weather Roundup
Issued by NWS

Home | Current Version | Previous Version | Graphics & Text | Print | Product List | Glossary On
Versions: 1 2 3 4 5 6 7 8 9 10 11 12 13 14 15 16 17 18 19 20 21 22 23 24 25 26 27 28 29 30 31 32 33 34 35 36 37 38 39 40 41 42 43 44 45 46 47 48 49 50
000
ASUS43 KOAX 211610
RWRNE

WEATHER ROUNDUP FOR NEBRASKA
NATIONAL WEATHER SERVICE OMAHA NE
1000 AM CST WED FEB 21 2018

NOTES: SATELLITE DATA IS BEING USED TO AUGMENT CLOUD COVER ABOVE
       12000 FEET.
       "FAIR" INDICATES FEW OR NO CLOUDS BELOW 12,000 FEET WITH NO
       SIGNIFICANT WEATHER AND/OR OBSTRUCTIONS TO VISIBILITY.


NEZ001>004-019>022-054>056-211700-
NEBRASKA PANHANDLE

CITY           SKY/WX    TMP DP  RH WIND       PRES   REMARKS
SCOTTSBLUFF    SUNNY      2  -4  76 CALM      30.28F
ALLIANCE       SUNNY     -7  -9  91 CALM      30.29R
CHADRON        SUNNY     -6 -16  61 CALM      30.31S
GORDON         FAIR       1  -8  66 SW5       30.30S WCI  -8
KIMBALL        SUNNY     18   7  62 S17       30.22S WCI   2
SIDNEY         SUNNY     18   7  62 SW14      30.29R WCI   4
$$

NEZ057>060-069>072-079>082-211700-
SOUTHWEST NEBRASKA

CITY           SKY/WX    TMP DP  RH WIND       PRES   REMARKS
NORTH PLATTE   SUNNY      7   0  73 SE3       30.47R
IMPERIAL       SUNNY      9   1  70 SE8       30.42R WCI  -3
LEXINGTON      SUNNY     15   5  65 SE7       30.52S WCI   5
MCCOOK         SUNNY     13   6  74 S3        30.52R
OGALLALA       SUNNY      7  -1  71 W5        30.40S WCI  -2
$$

NEZ005>010-023>029-035>040-094-211700-
NORTH CENTRAL NEBRASKA

CITY           SKY/WX    TMP DP  RH WIND       PRES   REMARKS
VALENTINE      SUNNY     -3  -9  75 S8        30.42S WCI -18
AINSWORTH      SUNNY      7  -1  70 S7        30.44R WCI  -5
BROKEN BOW     SUNNY      7  -2  66 CALM      30.50R
O`NEILL        SUNNY      3  -5  69 S6        30.53R WCI  -8
ORD            SUNNY      9  -1  64 CALM      30.54R
THEDFORD       SUNNY     13   5  71 CALM      30.42S
$$

NEZ041-046>049-061>064-073>077-083>087-211700-
SOUTH CENTRAL NEBRASKA

CITY           SKY/WX    TMP DP  RH WIND       PRES   REMARKS
GRAND ISLAND   SUNNY     13   2  61 E3        30.57F
AURORA         SUNNY     15   2  57 E6        30.58S WCI   6
HASTINGS       SUNNY     13   0  56 E6        30.57R WCI   4
HEBRON         CLOUDY    16   3  56 E8        30.62S WCI   5
HOLDREGE       SUNNY     13   4  66 SE5       30.54S WCI   5
KEARNEY          N/A     17   4  56 SE5       30.56R WCI  10
YORK           SUNNY     14   5  67 E7        30.60S WCI   4
$$

NEZ011>018-030>034-042>045-211700-
NORTHEAST NEBRASKA

CITY           SKY/WX    TMP DP  RH WIND       PRES   REMARKS
NORFOLK        SUNNY      9   0  67 SE3       30.60R
ALBION         SUNNY     11   0  60 SE5       30.58S WCI   3
BLAIR          CLOUDY    14   6  71 NE5       30.63R WCI   6
COLUMBUS       SUNNY     18   4  54 E3        30.63R
FREMONT        CLOUDY    13   5  70 CALM      30.65R
TEKAMAH        CLOUDY    12   4  70 CALM      30.67R
WAYNE          SUNNY     10  -1  61 CALM      30.62S
$$

NEZ050>053-065>068-078-088>093-211700-
SOUTHEAST NEBRASKA

CITY           SKY/WX    TMP DP  RH WIND       PRES   REMARKS
LINCOLN        CLOUDY    14   4  64 NE6       30.65S WCI   5
OMAHA EPPLEY   CLOUDY    13   4  67 N3        30.67R
BEATRICE       CLOUDY    15   6  66 NE7       30.63S WCI   5
FALLS CITY     CLOUDY    16   7  67 N9        30.63S WCI   4
NEBRASKA CITY  CLOUDY    15   8  75 NE9       30.64S WCI   3
PLATTSMOUTH    CLOUDY    14   6  71 NE5       30.64S WCI   6
$$

NEZ044-045-051>053-067-211700-
OMAHA AREA

CITY           SKY/WX    TMP DP  RH WIND       PRES   REMARKS
OMAHA EPPLEY   CLOUDY    13   4  67 N3        30.67R
BLAIR          CLOUDY    14   6  71 NE5       30.63R WCI   6
FREMONT        CLOUDY    13   5  70 CALM      30.65R
MILLARD        CLOUDY    15   4  61 CALM      30.66S
OFFUTT AFB     CLOUDY    15   5  65 NE3       30.66R
PLATTSMOUTH    CLOUDY    14   6  71 NE5       30.64S WCI   6
WAHOO          FAIR      13   5  69 CALM      30.65R
$$



USA.gov is the U.S. government's official web portal to all federal, state and local government web resources and services.